TimeCST,TemperatureF,Dew PointF,Humidity,Sea Level PressureIn,VisibilityMPH,Wind Direction,Wind SpeedMPH,Gust SpeedMPH,PrecipitationIn,Events,Conditions,WindDirDegrees,DateUTC
12:53 AM,27.0,19.0,72,30.04,10.0,West,9.2,-,N/A,,Clear,270,2012-12-04 06:53:00
1:53 AM,30.9,21.0,67,30.04,10.0,West,8.1,-,N/A,,Clear,270,2012-12-04 07:53:00
2:53 AM,28.9,19.9,69,30.06,10.0,WNW,8.1,-,N/A,,Clear,290,2012-12-04 08:53:00
3:53 AM,27.0,19.9,75,30.09,10.0,WNW,4.6,-,N/A,,Clear,300,2012-12-04 09:53:00
4:53 AM,28.0,21.9,78,30.11,10.0,NW,6.9,-,N/A,,Clear,320,2012-12-04 10:53:00
5:53 AM,25.0,19.9,81,30.14,10.0,NNW,8.1,-,N/A,,Clear,330,2012-12-04 11:53:00
6:53 AM,24.1,19.0,81,30.18,10.0,NNW,9.2,-,N/A,,Clear,330,2012-12-04 12:53:00
7:53 AM,21.9,17.1,82,30.23,10.0,NW,8.1,-,N/A,,Clear,320,2012-12-04 13:53:00
8:53 AM,23.0,15.1,72,30.26,10.0,NNW,12.7,-,N/A,,Clear,330,2012-12-04 14:53:00
9:53 AM,24.1,15.1,69,30.28,10.0,NNW,10.4,-,N/A,,Clear,340,2012-12-04 15:53:00
10:53 AM,27.0,15.1,61,30.29,10.0,North,13.8,-,N/A,,Clear,350,2012-12-04 16:53:00
11:53 AM,28.9,16.0,58,30.29,10.0,NNW,10.4,-,N/A,,Clear,340,2012-12-04 17:53:00
12:53 PM,30.9,16.0,54,30.30,10.0,NW,9.2,-,N/A,,Clear,320,2012-12-04 18:53:00
1:53 PM,32.0,16.0,52,30.29,10.0,North,10.4,-,N/A,,Clear,350,2012-12-04 19:53:00
2:53 PM,32.0,16.0,52,30.29,10.0,North,8.1,-,N/A,,Clear,360,2012-12-04 20:53:00
3:53 PM,30.9,16.0,54,30.31,10.0,North,3.5,-,N/A,,Clear,360,2012-12-04 21:53:00
4:53 PM,25.0,15.1,66,30.33,10.0,NNW,4.6,-,N/A,,Clear,340,2012-12-04 22:53:00
5:53 PM,24.1,12.9,62,30.33,10.0,East,3.5,-,N/A,,Clear,90,2012-12-04 23:53:00
6:53 PM,21.9,10.9,63,30.34,10.0,East,8.1,-,N/A,,Clear,90,2012-12-05 00:53:00
7:53 PM,21.0,10.9,65,30.35,10.0,East,8.1,-,N/A,,Clear,80,2012-12-05 01:53:00
8:53 PM,21.0,10.9,65,30.37,10.0,East,6.9,-,N/A,,Clear,90,2012-12-05 02:53:00
9:53 PM,21.0,10.9,65,30.36,10.0,East,8.1,-,N/A,,Clear,100,2012-12-05 03:53:00
10:53 PM,21.0,10.0,63,30.37,10.0,East,6.9,-,N/A,,Clear,90,2012-12-05 04:53:00
11:53 PM,21.0,10.0,63,30.36,10.0,SE,8.1,-,N/A,,Clear,130,2012-12-05 05:53:00